Time,TemperatureF,DewpointF,PressureIn,WindDirection,WindDirectionDegrees,WindSpeedMPH,WindSpeedGustMPH,Humidity,HourlyPrecipIn,Conditions,Clouds,dailyrainin,SoftwareType,DateUTC
2013-01-31 06:00:00,17.0,15.0,-100.00,North,-999,-999.0,-999.0,91,-99.99,,,-99.99,,2013-01-31 13:00:00,
2013-01-31 07:00:00,10.0,7.0,-100.00,North,-999,-999.0,-999.0,89,-99.99,,,0.01,,2013-01-31 14:00:00,
2013-01-31 07:52:00,10.0,7.0,-100.00,North,-999,-999.0,-999.0,89,-99.99,,,0.01,,2013-01-31 14:52:00,
2013-01-31 08:00:00,13.0,11.0,-100.00,North,-999,-999.0,-999.0,91,-99.99,,,-99.99,,2013-01-31 15:00:00,
2013-01-31 08:52:00,13.0,11.0,-100.00,North,-999,-999.0,-999.0,91,-99.99,,,-99.99,,2013-01-31 15:52:00,
2013-01-31 09:00:00,15.0,13.0,-100.00,North,-999,-999.0,-999.0,92,-99.99,,,-99.99,,2013-01-31 16:00:00,
2013-01-31 09:52:00,15.0,13.0,-100.00,North,-999,-999.0,-999.0,92,-99.99,,,-99.99,,2013-01-31 16:52:00,
2013-01-31 10:00:00,20.0,17.0,-100.00,North,-999,-999.0,-999.0,89,-99.99,,,0.01,,2013-01-31 17:00:00,
2013-01-31 10:53:00,20.0,17.0,-100.00,North,-999,-999.0,-999.0,89,-99.99,,,0.01,,2013-01-31 17:53:00,
2013-01-31 11:00:00,21.0,18.0,-100.00,North,-999,-999.0,-999.0,86,-99.99,,,-99.99,,2013-01-31 18:00:00,
2013-01-31 11:52:00,21.0,18.0,-100.00,North,-999,-999.0,-999.0,86,-99.99,,,-99.99,,2013-01-31 18:52:00,
2013-01-31 12:00:00,22.0,17.0,-100.00,North,-999,-999.0,-999.0,84,-99.99,,,-99.99,,2013-01-31 19:00:00,
2013-01-31 12:52:00,22.0,17.0,-100.00,North,-999,-999.0,-999.0,84,-99.99,,,-99.99,,2013-01-31 19:52:00,
2013-01-31 13:00:00,23.0,18.0,-100.00,North,-999,-999.0,-999.0,82,-99.99,,,0.01,,2013-01-31 20:00:00,
2013-01-31 13:52:00,23.0,18.0,-100.00,North,-999,-999.0,-999.0,82,-99.99,,,0.01,,2013-01-31 20:52:00,
2013-01-31 14:00:00,22.0,18.0,-100.00,North,-999,-999.0,-999.0,83,-99.99,,,-99.99,,2013-01-31 21:00:00,
2013-01-31 14:52:00,22.0,18.0,-100.00,North,-999,-999.0,-999.0,83,-99.99,,,-99.99,,2013-01-31 21:52:00,
2013-01-31 15:00:00,23.0,19.0,-100.00,North,-999,-999.0,-999.0,84,-99.99,,,-99.99,,2013-01-31 22:00:00,
2013-01-31 15:52:00,23.0,19.0,-100.00,North,-999,-999.0,-999.0,84,-99.99,,,-99.99,,2013-01-31 22:52:00,
2013-01-31 16:00:00,23.0,18.0,-100.00,North,-999,-999.0,-999.0,81,-99.99,,,0.01,,2013-01-31 23:00:00,
2013-01-31 16:52:00,23.0,18.0,-100.00,North,-999,-999.0,-999.0,81,-99.99,,,0.01,,2013-01-31 23:52:00,
2013-01-31 17:00:00,22.0,17.0,-100.00,North,-999,-999.0,-999.0,80,-99.99,,,-99.99,,2013-02-01 00:00:00,
2013-01-31 17:52:00,22.0,17.0,-100.00,North,-999,-999.0,-999.0,80,-99.99,,,-99.99,,2013-02-01 00:52:00,
2013-01-31 18:00:00,22.0,18.0,-100.00,North,-999,-999.0,-999.0,81,-99.99,,,-99.99,,2013-02-01 01:00:00,
2013-01-31 18:52:00,22.0,18.0,-100.00,North,-999,-999.0,-999.0,81,-99.99,,,-99.99,,2013-02-01 01:52:00,
2013-01-31 19:00:00,22.0,17.0,-100.00,North,-999,-999.0,-999.0,80,-99.99,,,0.01,,2013-02-01 02:00:00,
2013-01-31 19:52:00,22.0,17.0,-100.00,North,-999,-999.0,-999.0,80,-99.99,,,0.01,,2013-02-01 02:52:00,
2013-01-31 20:00:00,22.0,17.0,-100.00,North,-999,-999.0,-999.0,79,-99.99,,,-99.99,,2013-02-01 03:00:00,
2013-01-31 20:52:00,22.0,17.0,-100.00,North,-999,-999.0,-999.0,79,-99.99,,,-99.99,,2013-02-01 03:52:00,
2013-01-31 21:00:00,22.0,17.0,-100.00,North,-999,-999.0,-999.0,79,-99.99,,,-99.99,,2013-02-01 04:00:00,
2013-01-31 21:52:00,22.0,17.0,-100.00,North,-999,-999.0,-999.0,79,-99.99,,,-99.99,,2013-02-01 04:52:00,
2013-01-31 22:00:00,21.0,16.0,-100.00,North,-999,-999.0,-999.0,78,-99.99,,,0.01,,2013-02-01 05:00:00,
2013-01-31 22:52:00,21.0,16.0,-100.00,North,-999,-999.0,-999.0,78,-99.99,,,0.01,,2013-02-01 05:52:00,
2013-01-31 23:00:00,22.0,16.0,-100.00,North,-999,-999.0,-999.0,80,-99.99,,,-99.99,,2013-02-01 06:00:00,
2013-01-31 23:52:00,22.0,16.0,-100.00,North,-999,-999.0,-999.0,80,-99.99,,,-99.99,,2013-02-01 06:52:00,